Dewpoint
-5 -5 -7 -8 -7 -8 -7 -6 -3 -7 -10 -10 -10 -10 -13 -10 -11 -11 -11 -10 -10 -9 -7 -5 -1 1 2 3 5 6 7 6 7 6 6 6 5 5 4 4 3 3 2 0
-4 -5 -7 -8 -9 -8 -9 -10 -9 -7 -8 -11 -11 -12 -12 -12 -12 -12 -11 -11 -10 -9 -8 -8 -4 -1 1 2 4 5 6 5 6 6 6 6 5 4 4 3 3 2 1 1
-2 -4 -3 -8 -9 -8 -10 -11 -10 -10 -10 -12 -13 -13 -12 -13 -13 -12 -11 -11 -10 -9 -9 -9 -7 -3 -1 1 2 3 4 5 5 6 6 6 5 4 4 2 1 1 1 -0
-2 -4 -6 -8 -10 -10 -11 -12 -12 -12 -12 -12 -12 -12 -11 -12 -12 -13 -12 -11 -11 -10 -9 -10 -8 -4 -2 -0 1 2 3 4 4 5 5 5 5 4 3 2 1 1 0 -1
-8 -9 -9 -9 -10 -10 -10 -12 -12 -13 -14 -15 -14 -13 -10 -12 -13 -12 -12 -12 -11 -10 -9 -10 -9 -6 -3 -1 0 1 1 2 3 4 4 4 4 4 3 1 0 -0 -1 -1
-8 -8 -8 -12 -14 -13 -10 -9 -14 -14 -14 -14 -15 -14 -14 -15 -13 -13 -13 -12 -11 -10 -10 -10 -9 -7 -4 -2 -1 0 0 1 2 3 3 3 3 3 2 1 0 -0 -1 -2
-10 -10 -11 -15 -14 -14 -11 -11 -14 -13 -14 -14 -14 -14 -14 -14 -14 -13 -13 -12 -11 -11 -11 -11 -9 -8 -6 -3 -1 -0 -0 -0 0 1 2 2 2 2 1 1 -0 -1 -2 -3
-13 -13 -9 -13 -15 -15 -15 -15 -14 -14 -14 -14 -14 -14 -14 -14 -14 -14 -13 -13 -11 -11 -11 -11 -10 -9 -7 -5 -3 -2 -1 -1 -1 -0 0 1 1 1 0 -0 -1 -3 -3 -5
-13 -13 -14 -15 -13 -14 -14 -14 -14 -14 -14 -15 -15 -15 -15 -14 -14 -14 -13 -12 -12 -12 -11 -11 -11 -10 -8 -6 -4 -3 -2 -2 -2 -1 -1 -0 -0 -0 -1 -2 -2 -3 -4 -5
-11 -15 -14 -13 -16 -15 -14 -15 -16 -15 -15 -15 -15 -15 -15 -15 -14 -14 -13 -12 -12 -12 -12 -11 -11 -10 -9 -7 -6 -5 -4 -3 -2 -2 -2 -2 -2 -2 -2 -2 -3 -4 -5 -5
-13 -14 -14 -15 -16 -14 -15 -16 -16 -16 -15 -15 -15 -15 -15 -14 -14 -14 -13 -13 -12 -11 -11 -11 -11 -10 -10 -8 -7 -6 -5 -5 -4 -4 -4 -3 -3 -3 -3 -3 -3 -4 -5 -5
-13 -14 -14 -15 -15 -15 -16 -16 -15 -15 -16 -16 -15 -15 -14 -14 -14 -13 -13 -12 -12 -11 -11 -11 -11 -11 -10 -9 -8 -7 -7 -6 -6 -5 -5 -5 -5 -6 -6 -5 -6 -6 -6 -7
-14 -14 -14 -15 -16 -16 -16 -16 -16 -15 -15 -15 -15 -14 -14 -14 -13 -13 -12 -12 -12 -11 -11 -11 -10 -10 -10 -10 -9 -8 -8 -7 -7 -6 -6 -6 -7 -7 -8 -8 -8 -8 -8 -8
-15 -15 -16 -16 -15 -16 -16 -16 -16 -16 -15 -15 -14 -14 -14 -13 -13 -12 -12 -12 -12 -11 -11 -11 -10 -10 -10 -10 -10 -9 -9 -8 -8 -8 -7 -7 -8 -8 -8 -8 -9 -8 -8 -7
-16 -16 -16 -16 -16 -16 -16 -16 -16 -16 -15 -15 -15 -14 -14 -14 -13 -13 -12 -12 -12 -11 -11 -11 -11 -11 -11 -10 -10 -10 -9 -9 -9 -8 -8 -8 -9 -8 -8 -8 -8 -8 -8 -7
-16 -16 -16 -16 -16 -16 -16 -16 -16 -16 -15 -15 -15 -14 -14 -13 -13 -13 -12 -12 -12 -12 -12 -11 -11 -11 -11 -10 -10 -10 -10 -9 -9 -9 -9 -9 -8 -8 -8 -8 -8 -8 -8 -9
-17 -17 -17 -17 -17 -16 -16 -16 -16 -16 -16 -15 -15 -14 -14 -14 -14 -14 -13 -12 -12 -12 -12 -12 -11 -11 -11 -10 -10 -10 -9 -9 -9 -9 -9 -8 -8 -8 -9 -9 -9 -10 -10 -10
-17 -17 -17 -17 -17 -17 -17 -16 -16 -16 -16 -15 -15 -15 -15 -14 -13 -13 -13 -13 -13 -13 -12 -12 -11 -11 -11 -10 -10 -9 -9 -9 -9 -9 -9 -9 -9 -9 -10 -10 -10 -10 -11 -11
-17 -17 -17 -17 -17 -17 -17 -17 -16 -16 -16 -15 -15 -15 -14 -14 -14 -13 -13 -13 -13 -13 -12 -12 -12 -12 -11 -11 -10 -10 -10 -9 -9 -10 -9 -9 -9 -10 -10 -10 -11 -11 -12 -12
-18 -18 -17 -17 -17 -17 -17 -17 -17 -16 -16 -16 -15 -15 -15 -14 -14 -14 -13 -13 -13 -13 -13 -12 -12 -12 -12 -11 -11 -10 -10 -10 -10 -10 -10 -10 -10 -10 -10 -11 -11 -12 -12 -13
-19 -18 -18 -18 -17 -17 -17 -17 -17 -17 -16 -16 -16 -15 -15 -14 -14 -15 -15 -15 -14 -13 -13 -13 -13 -12 -12 -12 -12 -11 -11 -11 -11 -11 -11 -10 -10 -11 -11 -12 -12 -12 -13 -13
-19 -19 -18 -18 -18 -18 -17 -17 -17 -17 -17 -16 -16 -16 -15 -15 -15 -15 -15 -15 -15 -14 -14 -13 -13 -12 -12 -12 -12 -11 -11 -11 -11 -11 -11 -11 -11 -12 -12 -12 -13 -13 -13 -13
-20 -19 -18 -18 -18 -18 -18 -17 -17 -17 -17 -17 -17 -17 -16 -16 -16 -16 -17 -16 -15 -15 -14 -14 -13 -13 -12 -12 -12 -12 -12 -12 -11 -11 -12 -12 -12 -13 -13 -13 -14 -14 -16 -19
-20 -19 -19 -18 -18 -18 -18 -18 -18 -17 -18 -18 -17 -17 -17 -17 -16 -16 -16 -16 -15 -15 -15 -14 -14 -13 -13 -13 -12 -12 -12 -12 -12 -12 -13 -13 -13 -13 -14 -14 -14 -15 -17 -19
-21 -20 -19 -19 -19 -19 -19 -18 -18 -18 -18 -18 -18 -18 -17 -17 -17 -17 -17 -16 -16 -15 -15 -15 -14 -14 -13 -13 -13 -13 -13 -13 -13 -13 -13 -14 -14 -14 -14 -14 -15 -16 -17 -18
-22 -21 -21 -20 -20 -19 -19 -19 -19 -18 -18 -18 -19 -18 -18 -18 -17 -17 -17 -17 -16 -16 -16 -15 -15 -15 -14 -14 -14 -14 -13 -14 -14 -14 -14 -14 -14 -14 -14 -14 -14 -15 -16 -17
-23 -22 -21 -22 -20 -20 -20 -20 -19 -20 -19 -18 -19 -19 -18 -18 -18 -18 -17 -17 -17 -17 -16 -16 -16 -15 -15 -15 -15 -14 -14 -14 -14 -14 -14 -14 -14 -14 -15 -14 -15 -15 -16 -17
Wind_Speed
10 11 17 16 17 19 17 10 4 8 8 13 14 15 16 17 23 27 29 30 30 30 26 21 17 11 7 5 14 23 30 34 36 39 42 44 46 46 46 46 45 43 45 47
1 7 15 18 19 13 13 12 15 7 7 15 17 16 17 20 23 23 25 27 30 30 28 24 20 16 10 3 4 14 22 29 33 35 40 43 46 46 44 45 45 42 43 44
2 6 5 6 13 10 6 10 4 9 7 14 17 18 18 17 20 21 23 25 27 27 29 26 22 17 11 8 5 7 15 23 28 32 36 40 42 43 42 45 44 42 42 42
2 2 5 2 8 7 10 8 7 5 10 12 17 26 14 20 26 28 30 29 30 28 31 27 21 16 12 9 9 9 9 16 23 28 32 37 39 42 43 44 43 42 40 39
3 3 2 1 6 4 3 4 10 11 12 17 25 16 14 29 33 30 29 29 27 26 28 26 21 16 12 9 10 12 11 12 18 24 28 33 38 39 41 42 42 41 38 36
3 4 3 4 7 11 5 3 11 13 11 14 21 8 5 35 32 34 30 28 27 29 25 24 19 15 12 10 10 12 12 12 16 20 24 29 34 37 37 37 38 37 35 35
4 3 1 3 13 10 3 4 19 15 14 14 6 9 25 30 31 28 26 26 25 25 26 23 19 16 13 11 10 13 14 14 16 19 22 27 30 34 35 37 37 37 36 35
3 5 2 11 4 6 5 17 17 18 16 17 19 22 23 27 30 31 30 26 25 28 26 22 19 17 14 12 10 13 16 16 17 20 22 26 30 32 34 36 37 37 36 36
3 3 3 13 16 8 8 12 18 21 24 23 24 23 26 26 27 28 27 26 25 27 25 21 18 17 16 12 11 12 14 16 17 19 23 27 29 32 34 36 37 37 37 35
3 5 2 9 14 17 15 21 20 20 23 24 24 27 27 28 28 27 23 24 25 24 24 24 20 17 15 12 11 11 14 16 18 21 23 26 28 31 34 36 37 37 37 36
4 5 5 2 20 18 21 21 20 21 23 22 23 25 24 27 27 25 25 27 22 21 23 23 20 17 15 11 10 10 13 16 18 20 24 28 29 31 33 34 35 38 38 39
2 3 2 7 14 13 20 21 21 22 24 21 21 23 24 25 25 25 27 23 21 20 18 19 18 16 13 9 7 9 13 17 19 21 24 25 28 28 28 28 30 30 34 38
5 10 14 6 13 17 19 20 19 18 18 21 21 21 22 23 23 21 20 20 20 19 18 16 14 12 10 6 4 6 11 16 18 21 24 24 25 26 24 19 23 27 33 38
15 14 6 13 13 17 16 18 17 17 18 19 21 21 22 22 21 21 20 18 16 16 16 15 13 12 12 8 4 3 8 12 16 18 21 21 23 24 23 27 30 31 30 33
17 11 8 12 13 15 17 18 19 21 21 21 20 21 22 22 22 20 19 18 17 17 17 16 15 13 13 11 5 4 6 12 13 15 18 18 21 27 32 33 33 35 32 32
16 12 14 14 16 18 19 19 20 21 21 21 21 21 21 19 19 19 17 17 20 21 20 18 16 15 12 10 6 2 7 9 11 15 20 26 31 36 37 39 40 41 42 39
18 19 20 19 18 18 18 17 17 17 19 19 19 19 19 18 18 20 19 17 17 17 17 20 18 15 10 6 3 2 7 12 18 24 28 34 37 38 36 43 44 43 41 36
13 14 14 14 15 16 18 18 17 16 17 17 17 16 17 18 18 18 19 19 18 19 19 18 17 14 10 1 4 9 12 17 23 27 32 35 36 38 42 42 36 33 31 27
15 15 16 16 14 14 15 18 17 16 15 16 15 15 14 16 16 16 19 23 23 23 22 18 15 13 12 6 3 9 16 22 25 28 31 34 36 38 38 34 33 32 29 28
19 16 15 16 16 14 14 16 16 16 15 15 14 14 13 15 18 17 20 27 22 19 18 17 14 13 11 8 3 10 17 22 26 28 28 32 34 35 31 29 28 28 28 26
21 19 17 16 18 15 13 15 16 17 15 14 14 14 15 13 15 19 22 23 24 20 18 18 18 14 11 8 6 10 16 21 23 25 27 31 32 30 29 29 29 28 26 23
22 19 17 16 19 16 14 14 13 15 15 14 12 12 11 13 13 15 19 21 18 18 17 18 16 13 10 8 8 11 15 18 20 23 25 26 26 28 28 26 24 23 21 18
19 17 15 17 18 15 13 13 13 13 14 16 14 13 12 11 13 16 18 19 18 15 16 15 13 10 8 9 9 10 13 16 19 21 22 23 24 24 24 22 20 18 17 17
18 15 15 15 15 14 15 14 14 13 13 13 14 13 13 11 10 12 11 12 15 14 13 14 11 9 8 9 10 11 14 16 19 21 23 23 23 21 20 19 18 16 13 11
16 13 15 14 15 16 14 14 15 11 14 15 15 13 12 11 12 13 12 11 10 11 11 10 10 9 8 9 11 12 14 15 16 18 19 20 19 19 18 16 14 12 10 7
14 14 15 13 13 12 12 14 14 11 12 17 17 15 12 10 10 11 11 10 9 9 8 8 9 9 9 9 10 11 12 14 15 16 16 16 15 14 13 12 10 8 6 4
13 12 16 12 10 12 12 12 12 11 11 16 17 15 13 10 10 10 10 10 9 8 7 6 6 7 8 8 8 9 10 12 12 12 12 12 12 11 10 8 6 4 3 3
Wind_Direction
106 113 79 52 24 19 45 5 47 98 78 8 358 348 354 10 7 7 4 1 360 359 1 359 357 358 19 79 193 213 231 235 233 231 227 228 229 230 232 234 234 234 232 231
83 142 77 53 24 30 38 8 41 46 66 5 342 344 3 10 7 4 356 351 349 351 351 355 352 344 337 320 183 208 218 233 232 231 226 224 225 227 229 231 230 230 229 231
251 206 300 28 2 28 78 31 12 40 338 334 344 341 337 9 9 358 349 343 341 347 340 344 343 339 322 302 252 227 225 232 235 232 228 224 224 223 225 227 228 228 229 229
338 35 53 124 46 59 97 66 51 50 354 349 338 328 116 28 5 350 343 339 338 343 337 337 336 330 313 286 261 244 224 225 231 230 227 224 222 221 222 226 227 227 229 230
83 37 163 45 15 330 344 88 31 5 359 354 341 321 225 353 353 337 332 331 333 340 329 333 330 322 311 288 260 248 243 235 228 225 224 222 220 221 220 221 221 225 229 230
18 91 123 231 306 308 209 189 13 10 2 347 351 11 316 327 332 330 336 337 338 336 332 331 331 323 306 289 267 248 242 246 239 234 227 226 223 221 222 224 227 229 229 227
5 91 242 252 302 323 50 310 342 346 348 344 329 299 301 315 324 329 331 338 337 336 333 337 335 325 308 289 264 253 241 239 238 236 235 231 226 224 222 221 221 223 222 223
346 43 359 341 359 87 274 317 327 337 339 333 324 320 319 324 329 332 336 344 342 337 338 341 336 325 307 287 265 245 240 233 234 230 228 226 224 220 217 219 216 217 218 214
136 215 252 86 103 43 8 343 337 336 335 333 327 324 328 327 329 333 339 337 337 333 335 341 337 327 309 288 267 245 236 233 231 233 233 230 227 224 218 217 218 215 212 206
153 343 110 99 28 14 360 351 343 342 336 335 326 330 327 331 333 335 337 338 335 335 337 335 336 328 311 288 262 245 236 230 227 227 229 227 224 224 222 217 215 213 209 204
94 40 141 16 5 355 347 347 349 348 346 337 337 333 336 334 337 338 340 343 341 339 338 334 331 329 315 288 255 244 238 233 228 223 224 224 223 223 222 225 225 218 214 210
4 51 310 304 337 339 345 350 351 347 340 348 347 341 345 343 342 345 340 343 345 346 340 334 330 330 317 288 243 242 242 233 225 220 215 216 218 214 219 224 222 218 217 204
324 323 323 334 337 347 347 348 351 345 353 348 354 353 353 351 351 341 352 354 349 345 342 341 339 335 335 309 258 249 246 235 221 218 214 212 211 212 205 201 206 201 193 185
7 346 337 339 333 343 346 348 355 360 4 4 359 3 2 2 2 5 4 1 356 354 353 351 347 353 357 354 335 277 253 243 229 221 216 210 209 205 198 179 173 174 181 190
356 358 341 327 339 352 357 356 358 4 4 6 9 6 8 9 8 9 13 12 16 11 7 5 1 6 12 8 351 296 250 226 224 216 209 201 191 177 171 168 168 162 157 157
354 5 1 360 355 355 358 1 360 358 2 3 3 5 7 10 11 13 14 17 23 18 15 15 12 10 9 360 352 281 213 222 210 199 186 180 174 168 164 156 152 149 147 150
357 356 355 355 354 352 357 358 356 355 356 0 1 0 4 9 15 15 16 18 25 20 19 20 17 17 13 352 327 214 179 178 184 173 170 164 158 156 152 149 149 151 152 157
5 358 355 353 351 349 353 357 357 357 357 357 1 3 9 15 14 15 19 16 19 21 21 24 21 27 25 23 172 171 176 173 172 169 164 161 158 156 155 154 150 148 147 152
7 1 358 359 357 355 355 357 359 358 359 1 4 12 18 26 27 26 29 27 20 16 14 20 27 35 42 34 153 162 158 158 158 156 158 159 157 156 154 152 151 150 149 143
1 1 358 357 1 360 360 1 1 5 7 10 15 20 30 35 35 37 39 40 30 23 20 22 25 33 40 48 102 153 156 155 156 158 160 160 158 155 153 153 150 147 143 141
357 357 359 356 355 360 3 3 3 6 10 16 24 29 38 54 45 42 36 31 25 11 23 29 26 32 45 61 110 146 152 152 151 150 155 154 153 154 152 150 149 145 143 148
354 354 359 1 356 356 1 6 8 8 10 12 18 24 28 37 32 32 33 24 16 19 31 29 27 27 43 75 116 139 147 150 150 152 152 153 153 151 148 146 146 145 145 145
349 353 1 3 355 351 1 11 12 9 8 8 8 8 17 14 9 8 10 17 8 18 27 32 24 38 58 81 103 127 138 144 145 147 146 146 145 143 141 140 140 140 147 151
345 355 360 1 356 1 8 9 11 15 9 6 6 3 360 5 5 7 3 3 8 15 23 27 33 49 71 90 107 119 128 133 137 139 141 141 140 137 136 139 144 144 148 149
343 349 357 359 355 355 4 8 2 11 9 6 4 3 4 6 8 2 360 3 10 16 24 40 48 62 82 102 114 121 127 134 140 143 141 138 139 144 144 143 145 146 150 154
345 349 349 348 345 351 5 8 354 7 7 10 5 2 4 4 3 7 12 11 14 23 33 45 59 69 88 103 117 127 134 137 139 141 145 146 146 147 148 151 153 158 165 184
359 348 351 349 14 10 1 355 351 359 13 6 355 1 3 7 10 12 16 19 22 29 39 51 64 81 92 104 117 127 134 138 143 148 149 152 153 156 158 162 169 186 217 255
Height
1391 1393 1392 1400 1397 1392 1381 1384 1369 1402 1415 1418 1414 1413 1410 1404 1397 1390 1387 1387 1386 1382 1379 1377 1375 1374 1374 1374 1375 1378 1383 1385 1389 1393 1397 1401 1402 1407 1413 1418 1424 1431 1437 1443
1390 1392 1388 1399 1405 1403 1407 1407 1402 1401 1408 1419 1418 1415 1412 1407 1402 1401 1397 1392 1388 1385 1381 1377 1374 1372 1372 1372 1373 1375 1378 1382 1385 1387 1390 1394 1396 1402 1408 1411 1416 1423 1430 1435
1378 1387 1384 1395 1421 1415 1425 1429 1423 1425 1430 1426 1417 1412 1413 1412 1410 1408 1405 1399 1393 1387 1382 1377 1374 1372 1370 1370 1371 1373 1375 1378 1380 1381 1385 1389 1393 1398 1402 1406 1412 1416 1423 1429
1384 1389 1407 1425 1428 1427 1431 1434 1435 1433 1434 1429 1424 1419 1414 1413 1410 1405 1401 1397 1391 1386 1381 1377 1373 1370 1369 1369 1369 1370 1372 1375 1377 1379 1381 1385 1388 1392 1398 1402 1406 1411 1417 1425
1415 1431 1430 1425 1431 1433 1431 1438 1438 1436 1432 1430 1424 1417 1414 1409 1409 1408 1404 1398 1393 1388 1383 1377 1374 1370 1367 1366 1366 1367 1369 1372 1374 1376 1378 1381 1384 1388 1392 1397 1402 1407 1414 1420
1413 1424 1435 1433 1431 1430 1429 1428 1436 1436 1435 1430 1423 1420 1415 1415 1412 1404 1400 1396 1389 1384 1381 1377 1371 1367 1364 1363 1363 1364 1366 1368 1370 1373 1374 1377 1381 1384 1388 1393 1399 1406 1412 1416
1430 1434 1438 1440 1430 1426 1430 1435 1435 1436 1435 1434 1435 1432 1424 1416 1407 1404 1400 1392 1387 1383 1379 1372 1366 1363 1361 1359 1359 1361 1362 1365 1367 1369 1370 1374 1377 1381 1385 1389 1396 1403 1408 1412
1442 1448 1434 1437 1431 1440 1446 1436 1434 1432 1431 1428 1425 1421 1417 1409 1401 1398 1391 1385 1382 1377 1372 1367 1364 1360 1357 1357 1357 1357 1359 1360 1363 1365 1367 1370 1375 1377 1381 1386 1391 1397 1403 1409
1445 1448 1441 1441 1442 1444 1442 1438 1431 1427 1423 1422 1420 1417 1410 1406 1403 1397 1389 1388 1382 1375 1368 1364 1362 1358 1353 1352 1352 1351 1353 1355 1357 1359 1364 1368 1371 1373 1377 1382 1387 1392 1398 1403
1440 1443 1440 1441 1441 1441 1439 1435 1431 1428 1424 1419 1416 1410 1407 1403 1398 1394 1391 1387 1379 1370 1364 1360 1358 1355 1352 1349 1349 1348 1349 1351 1353 1356 1360 1363 1366 1370 1373 1377 1382 1388 1393 1399
1440 1444 1443 1440 1440 1439 1437 1435 1431 1427 1424 1421 1416 1411 1407 1401 1395 1391 1385 1378 1373 1369 1361 1357 1355 1351 1349 1347 1345 1345 1347 1348 1350 1352 1355 1359 1362 1366 1370 1375 1379 1383 1387 1393
1444 1448 1447 1445 1443 1440 1437 1434 1431 1427 1422 1418 1414 1409 1403 1397 1391 1385 1379 1374 1370 1367 1365 1360 1353 1351 1349 1345 1342 1343 1345 1346 1347 1348 1351 1354 1359 1363 1368 1373 1377 1381 1386 1391
1450 1447 1445 1443 1442 1440 1436 1433 1430 1426 1422 1415 1410 1406 1400 1395 1389 1385 1379 1373 1369 1366 1363 1359 1355 1351 1347 1343 1341 1341 1343 1344 1344 1346 1349 1351 1356 1361 1366 1372 1377 1379 1384 1390
1449 1446 1443 1442 1440 1438 1435 1431 1427 1424 1420 1415 1409 1404 1400 1395 1389 1384 1379 1375 1370 1366 1361 1356 1353 1347 1342 1339 1338 1338 1340 1341 1342 1344 1347 1350 1355 1360 1365 1371 1375 1379 1385 1392
1449 1447 1445 1442 1439 1436 1433 1428 1424 1421 1417 1412 1409 1404 1398 1393 1389 1385 1380 1376 1370 1366 1361 1355 1350 1346 1342 1339 1338 1338 1339 1340 1341 1344 1347 1351 1356 1362 1365 1372 1379 1381 1385 1395
1449 1447 1444 1441 1437 1434 1431 1427 1424 1420 1417 1412 1407 1403 1399 1395 1391 1386 1382 1377 1371 1367 1363 1358 1353 1348 1344 1343 1342 1341 1341 1342 1343 1346 1350 1353 1358 1364 1369 1372 1379 1385 1386 1395
1448 1445 1442 1439 1436 1434 1430 1427 1424 1421 1417 1413 1409 1405 1400 1395 1392 1387 1383 1379 1375 1372 1366 1360 1355 1351 1348 1347 1346 1345 1345 1346 1347 1350 1353 1356 1360 1365 1369 1375 1380 1385 1389 1395
1450 1448 1444 1441 1437 1434 1430 1427 1423 1420 1417 1414 1410 1406 1401 1397 1393 1389 1385 1381 1377 1373 1368 1362 1357 1354 1352 1351 1350 1349 1349 1349 1351 1353 1356 1360 1364 1368 1372 1379 1386 1391 1397 1401
1450 1447 1443 1440 1437 1434 1430 1426 1423 1420 1417 1413 1410 1406 1403 1399 1395 1391 1387 1382 1378 1374 1370 1365 1362 1358 1356 1355 1354 1353 1353 1353 1355 1359 1362 1366 1369 1375 1380 1385 1390 1394 1398 1402
1449 1445 1442 1440 1437 1434 1430 1427 1423 1419 1416 1413 1410 1407 1403 1400 1397 1393 1389 1385 1382 1379 1374 1369 1366 1363 1360 1358 1358 1357 1358 1359 1360 1363 1367 1371 1374 1379 1385 1390 1394 1398 1402 1407
1448 1444 1441 1439 1436 1433 1430 1427 1423 1419 1417 1414 1411 1408 1405 1402 1399 1396 1392 1388 1386 1382 1377 1373 1370 1366 1364 1362 1363 1363 1363 1365 1367 1370 1374 1377 1379 1385 1388 1392 1397 1401 1405 1410
1447 1444 1441 1438 1435 1432 1429 1426 1423 1420 1417 1415 1413 1410 1407 1403 1401 1399 1396 1393 1389 1385 1381 1377 1374 1372 1370 1368 1369 1369 1370 1371 1372 1376 1380 1382 1386 1389 1393 1396 1402 1405 1408 1412
1447 1443 1441 1438 1435 1432 1429 1426 1423 1421 1418 1415 1413 1411 1408 1405 1402 1399 1396 1394 1391 1388 1384 1381 1379 1377 1375 1375 1374 1375 1376 1377 1379 1381 1384 1387 1391 1395 1398 1403 1407 1409 1412 1415
1446 1443 1440 1438 1435 1432 1428 1426 1424 1421 1419 1416 1414 1411 1409 1406 1404 1402 1399 1397 1394 1391 1388 1386 1383 1381 1381 1380 1381 1381 1382 1383 1385 1387 1390 1393 1396 1400 1403 1407 1410 1413 1416 1417
1445 1442 1439 1437 1434 1432 1429 1427 1424 1421 1419 1417 1414 1411 1409 1407 1404 1402 1400 1398 1396 1394 1391 1389 1388 1386 1385 1385 1386 1386 1388 1389 1391 1392 1394 1397 1400 1403 1407 1410 1413 1415 1416 1417
1443 1440 1439 1437 1434 1432 1429 1427 1424 1422 1420 1418 1415 1412 1409 1407 1405 1402 1401 1399 1397 1396 1394 1393 1392 1391 1390 1391 1391 1392 1392 1393 1395 1397 1400 1402 1404 1407 1409 1411 1413 1414 1415 1416
1442 1440 1437 1435 1433 1430 1429 1427 1425 1423 1421 1419 1416 1413 1410 1408 1405 1403 1401 1400 1399 1397 1396 1395 1395 1395 1394 1395 1396 1396 1397 1398 1400 1402 1403 1405 1406 1408 1410 1412 1413 1414 1414 1414